Location: Newark
(40.8171°N, 74.0850°W)
Time: 18:06:36
(UTC+00:00)

ISS - Pass Details

Date: 07 April 2020
Orbit: 417 x 420 km, 51.6° (Epoch: 01 June)

Event Time Altitude Azimuth Distance (km) Brightness Sun altitude
Rises 00:23:29 0° 299° (WNW) 2,364 2.0 -11.1°
Reaches altitude 10° 00:25:43 10° 289° (WNW) 1,496 0.6 -11.5°
Maximum altitude 00:28:46 33° 224° (SW) 730 -2.3 -12.1°
Enters shadow 00:31:35 11° 160° (SSE) 1,411 -1.5 -12.6°
